05.05.2024;22:00;39
05.05.2024;21:00;30
05.05.2024;20:00;23
05.05.2024;19:00;16
05.05.2024;18:00;14
05.05.2024;17:00;9
05.05.2024;16:00;10
05.05.2024;15:00;8
05.05.2024;14:00;11
05.05.2024;13:00;9
05.05.2024;12:00;13
05.05.2024;11:00;12
05.05.2024;10:00;16
05.05.2024;09:00;22
05.05.2024;08:00;29
05.05.2024;07:00;27
05.05.2024;06:00;28
05.05.2024;05:00;38
05.05.2024;04:00;36
05.05.2024;03:00;43
05.05.2024;02:00;53
05.05.2024;01:00;51
05.05.2024;00:00;49
04.05.2024;23:00;67
04.05.2024;22:00;61
04.05.2024;21:00;48
04.05.2024;20:00;25
04.05.2024;19:00;18
04.05.2024;18:00;17
04.05.2024;17:00;17
04.05.2024;16:00;14
04.05.2024;15:00;15
04.05.2024;14:00;12
04.05.2024;13:00;13
04.05.2024;12:00;16
04.05.2024;11:00;13
04.05.2024;10:00;14
04.05.2024;09:00;14
04.05.2024;08:00;18
04.05.2024;07:00;19
04.05.2024;06:00;20
04.05.2024;05:00;17
04.05.2024;04:00;16
04.05.2024;03:00;22
04.05.2024;02:00;25
04.05.2024;01:00;29
04.05.2024;00:00;35
03.05.2024;23:00;37
